Location: Santiago
(33.4378°S, 70.6505°W)
Time: 23:45:07
(UTC+00:00)

ISS - Pass Details

Date: 23 November 2023
Orbit: 415 x 417 km, 51.6° (Epoch: 04 December)

Event Time Altitude Azimuth Distance (km) Brightness Sun altitude
Exits shadow 08:40:38 12° 279° (W) 1,401 -1.7 -9.5°
Maximum altitude 08:43:23 30° 218° (SW) 779 -2.5 -9.0°
Drops below altitude 10° 08:46:27 10° 153° (SSE) 1,518 0.1 -8.5°
Sets 08:48:44 0° 142° (SE) 2,387 1.6 -8.0°
